| time (UTC) | temp F | wind direction | speed MPH | gust MPH | rain 1hr in | rain 24hr in | rain mn in | humidity % | barometer mb |
| 20260902204105 | 63 | 0.0 | 0.0 | 0.00 | 0.00 | 0.00 | 60 | 1017.1 | |
| 20260902203026 | 63 | 0.0 | 0.0 | 0.00 | 0.00 | 0.00 | 60 | 1017.1 | |
| 20260902202024 | 63 | 0.0 | 0.0 | 0.00 | 0.00 | 0.00 | 59 | 1017.1 | |
| 20260902201022 | 64 | 0.0 | 0.0 | 0.00 | 0.00 | 0.00 | 59 | 1017.1 | |
| 20260902200024 | 64 | 0.0 | 0.0 | 0.00 | 0.00 | 0.00 | 58 | 1017.1 | |
| 20260902195024 | 64 | 0.0 | 0.0 | 0.00 | 0.00 | 0.00 | 57 | 1017.1 | |
| 20260902194045 | 64 | 0.0 | 0.0 | 0.00 | 0.00 | 0.00 | 56 | 1017.1 | |
| 20260902193037 | 64 | 0.0 | 0.0 | 0.00 | 0.00 | 0.00 | 55 | 1017.1 | |
| 20260902192022 | 0 | 0.0 | 0.0 | 0.00 | 0.00 | 0.00 | 1017.1 | ||
| 20260902191018 | 65 | 0.0 | 0.0 | 0.00 | 0.00 | 0.00 | 53 | 1017.1 | |
| 20260902190035 | 65 | 0.0 | 0.0 | 0.00 | 0.00 | 0.00 | 53 | 1017.1 | |
| 20260902185022 | 66 | 0.0 | 0.0 | 0.00 | 0.00 | 0.00 | 52 | 1017.1 | |
| 20260902184022 | 66 | 0.0 | 0.0 | 0.00 | 0.00 | 0.00 | 51 | 1017.1 | |
| 20260902183022 | 66 | 0.0 | 0.0 | 0.00 | 0.00 | 0.00 | 50 | 1017.1 | |
| 20260902182023 | 66 | 0.0 | 0.0 | 0.00 | 0.04 | 0.00 | 50 | 1017.1 | |
| 20260902181023 | 67 | 0.0 | 0.0 | 0.00 | 0.04 | 0.00 | 49 | 1017.1 | |
| 20260902180104 | 67 | 0.0 | 0.0 | 0.00 | 0.04 | 0.00 | 49 | 1017.1 | |
| 20260902175023 | 68 | 0.0 | 0.0 | 0.00 | 0.04 | 0.00 | 48 | 1017.1 | |
| 20260902174018 | 68 | 0.0 | 0.0 | 0.00 | 0.04 | 0.00 | 47 | 1017.1 | |
| 20260902173021 | 69 | 0.0 | 0.0 | 0.00 | 0.04 | 0.00 | 47 | 1017.1 | |
| 20260902172023 | 69 | 225 | 0.0 | 1.0 | 0.00 | 0.04 | 0.00 | 47 | 1017.1 |
| 20260902171023 | 69 | 0.0 | 0.0 | 0.00 | 0.04 | 0.00 | 46 | 1017.1 | |
| 20260902170022 | 69 | 0.0 | 0.0 | 0.00 | 0.04 | 0.00 | 45 | 1017.1 | |
| 20260902165020 | 69 | 68 | 1.0 | 2.0 | 0.00 | 0.04 | 0.00 | 45 | 1017.1 |
| 20260902164022 | 69 | 203 | 0.0 | 1.0 | 0.00 | 0.04 | 0.00 | 45 | 1017.1 |
| 20260902163027 | 70 | 225 | 0.0 | 1.0 | 0.00 | 0.04 | 0.00 | 44 | 1016.1 |
| 20260902162022 | 70 | 68 | 1.0 | 2.0 | 0.00 | 0.04 | 0.00 | 44 | 1016.9 |
| 20260902161017 | 70 | 263 | 1.0 | 2.0 | 0.00 | 0.04 | 0.00 | 43 | 1017.1 |
| 20260902160025 | 70 | 33 | 2.0 | 3.0 | 0.00 | 0.04 | 0.00 | 43 | 1016.1 |
| 20260902155022 | 71 | 170 | 1.0 | 2.0 | 0.00 | 0.04 | 0.00 | 43 | 1016.1 |
| 20260902154038 | 0 | 75 | 2.0 | 3.0 | 0.00 | 0.04 | 0.00 | 1016.1 | |
| 20260902153017 | 71 | 52 | 2.0 | 4.0 | 0.00 | 0.04 | 0.00 | 43 | 1017.1 |
| 20260902152024 | 72 | 64 | 1.0 | 3.0 | 0.00 | 0.04 | 0.00 | 42 | 1017.1 |
| 20260902151028 | 73 | 60 | 3.0 | 5.0 | 0.00 | 0.04 | 0.00 | 42 | 1017.1 |
| 20260902150044 | 74 | 275 | 1.0 | 2.0 | 0.00 | 0.04 | 0.00 | 41 | 1017.1 |
| 20260902145025 | 74 | 229 | 2.0 | 2.0 | 0.00 | 0.04 | 0.00 | 41 | 1017.1 |
| 20260902144022 | 76 | 219 | 1.0 | 2.0 | 0.00 | 0.04 | 0.00 | 41 | 1017.1 |
| 20260902143021 | 76 | 199 | 1.0 | 2.0 | 0.00 | 0.04 | 0.00 | 41 | 1017.1 |
| 20260902142026 | 76 | 71 | 2.0 | 4.0 | 0.00 | 0.04 | 0.00 | 41 | 1017.1 |
| 20260902141023 | 75 | 140 | 2.0 | 3.0 | 0.00 | 0.04 | 0.00 | 42 | 1017.1 |
| 20260902140026 | 77 | 198 | 2.0 | 3.0 | 0.00 | 0.04 | 0.00 | 42 | 1017.1 |
| 20260902135023 | 75 | 203 | 1.0 | 3.0 | 0.00 | 0.04 | 0.00 | 43 | 1017.1 |
| 20260902134025 | 75 | 68 | 2.0 | 4.0 | 0.00 | 0.04 | 0.00 | 43 | 1017.1 |
| 20260902133028 | 74 | 101 | 2.0 | 3.0 | 0.00 | 0.04 | 0.00 | 45 | 1017.1 |
| 20260902132032 | 73 | 104 | 2.0 | 4.0 | 0.00 | 0.04 | 0.00 | 45 | 1017.1 |
| 20260902131015 | 0 | 213 | 2.0 | 3.0 | 0.00 | 0.04 | 0.00 | 1017.1 | |
| 20260902130107 | 0 | 58 | 4.0 | 6.0 | 0.00 | 0.04 | 0.00 | 1017.1 | |
| 20260902125025 | 0 | 219 | 2.0 | 3.0 | 0.00 | 0.04 | 0.00 | 1017.1 | |
| 20260902124023 | 73 | 219 | 1.0 | 2.0 | 0.00 | 0.04 | 0.00 | 46 | 1017.1 |
| 20260902123038 | 0 | 203 | 2.0 | 7.0 | 0.00 | 0.04 | 0.00 | 1017.1 | |
| 20260902122018 | 72 | 265 | 2.0 | 5.0 | 0.00 | 0.04 | 0.00 | 46 | 1017.1 |
| 20260902121026 | 72 | 272 | 1.0 | 2.0 | 0.00 | 0.04 | 0.00 | 46 | 1017.1 |
| 20260902120036 | 73 | 212 | 1.0 | 3.0 | 0.00 | 0.04 | 0.00 | 46 | 1017.1 |
| 20260902115024 | 72 | 212 | 1.0 | 3.0 | 0.00 | 0.04 | 0.00 | 47 | 1017.1 |
| 20260902114022 | 72 | 239 | 1.0 | 1.0 | 0.00 | 0.04 | 0.00 | 48 | 1017.1 |
| 20260902113023 | 71 | 215 | 0.0 | 2.0 | 0.00 | 0.04 | 0.00 | 50 | 1017.1 |
| 20260902112023 | 70 | 235 | 1.0 | 1.0 | 0.00 | 0.13 | 0.00 | 49 | 1017.1 |
| 20260902111026 | 0 | 54 | 1.0 | 3.0 | 0.00 | 0.13 | 0.00 | 1017.1 | |
| 20260902110022 | 70 | 85 | 1.0 | 3.0 | 0.00 | 0.13 | 0.00 | 51 | 1017.1 |
| 20260902105038 | 71 | 206 | 1.0 | 2.0 | 0.00 | 0.13 | 0.00 | 52 | 1017.9 |
| 20260902104028 | 70 | 194 | 2.0 | 3.0 | 0.00 | 0.13 | 0.00 | 52 | 1018.1 |
| 20260902103044 | 70 | 222 | 1.0 | 2.0 | 0.00 | 0.13 | 0.00 | 53 | 1018.1 |
| 20260902102023 | 70 | 55 | 2.0 | 3.0 | 0.00 | 0.17 | 0.00 | 53 | 1017.2 |
| 20260902101016 | 70 | 203 | 2.0 | 2.0 | 0.00 | 0.17 | 0.00 | 54 | 1017.1 |
| 20260902100020 | 70 | 151 | 1.0 | 2.0 | 0.00 | 0.17 | 0.00 | 55 | 1018.1 |
| 20260902095025 | 70 | 47 | 1.0 | 4.0 | 0.00 | 0.17 | 0.00 | 56 | 1018.1 |
| 20260902094019 | 69 | 46 | 1.0 | 3.0 | 0.00 | 0.17 | 0.00 | 58 | 1018.1 |
| 20260902093023 | 69 | 174 | 1.0 | 3.0 | 0.00 | 0.17 | 0.00 | 57 | 1018.1 |
| 20260902092022 | 69 | 167 | 1.0 | 2.0 | 0.00 | 0.17 | 0.00 | 57 | 1017.2 |
| 20260902091023 | 69 | 271 | 1.0 | 1.0 | 0.00 | 0.17 | 0.00 | 58 | 1017.1 |
| 20260902090016 | 69 | 222 | 1.0 | 2.0 | 0.00 | 0.17 | 0.00 | 59 | 1018.1 |
| 20260902085022 | 69 | 213 | 1.0 | 2.0 | 0.00 | 0.17 | 0.00 | 60 | 1017.2 |
| 20260902084025 | 68 | 224 | 1.0 | 2.0 | 0.00 | 0.17 | 0.00 | 62 | 1017.1 |
| 20260902083025 | 0 | 162 | 2.0 | 4.0 | 0.00 | 0.17 | 0.00 | 1017.1 | |
| 20260902082048 | 67 | 222 | 1.0 | 2.0 | 0.00 | 0.17 | 0.00 | 63 | 1017.1 |
| 20260902081025 | 0 | 203 | 1.0 | 2.0 | 0.00 | 0.17 | 0.00 | 1017.1 | |
| 20260902080045 | 66 | 146 | 1.0 | 4.0 | 0.00 | 0.17 | 0.00 | 65 | 1017.1 |
| 20260902075028 | 0 | 219 | 1.0 | 2.0 | 0.00 | 0.17 | 0.00 | 1017.1 | |
| 20260902074024 | 65 | 215 | 1.0 | 1.0 | 0.00 | 0.17 | 0.00 | 67 | 1017.1 |
| 20260902073017 | 0 | 218 | 1.0 | 2.0 | 0.00 | 0.17 | 0.00 | 1017.1 | |
| 20260902072024 | 65 | 203 | 1.0 | 1.0 | 0.00 | 0.17 | 0.00 | 68 | 1017.1 |
| 20260902071024 | 65 | 212 | 0.0 | 2.0 | 0.00 | 0.17 | 0.00 | 68 | 1017.1 |
| 20260902070019 | 64 | 270 | 0.0 | 1.0 | 0.00 | 0.17 | 0.00 | 68 | 1017.1 |
| 20260902065024 | 64 | 222 | 1.0 | 2.0 | 0.00 | 0.17 | 0.00 | 69 | 1017.1 |
| 20260902064043 | 64 | 240 | 0.0 | 1.0 | 0.00 | 0.17 | 0.00 | 69 | 1017.1 |
| 20260902063042 | 64 | 216 | 0.0 | 2.0 | 0.00 | 0.17 | 0.00 | 70 | 1017.1 |
| 20260902062022 | 63 | 203 | 0.0 | 2.0 | 0.00 | 0.17 | 0.00 | 70 | 1017.1 |
| 20260902061023 | 62 | 235 | 1.0 | 3.0 | 0.00 | 0.17 | 0.00 | 71 | 1017.1 |
| 20260902060022 | 62 | 225 | 0.0 | 1.0 | 0.00 | 0.17 | 0.00 | 71 | 1017.1 |
| 20260902055023 | 63 | 248 | 0.0 | 1.0 | 0.00 | 0.17 | 0.00 | 71 | 1017.1 |
| 20260902054044 | 62 | 226 | 1.0 | 1.0 | 0.00 | 0.17 | 0.00 | 71 | 1017.1 |
| 20260902053017 | 62 | 203 | 0.0 | 2.0 | 0.00 | 0.17 | 0.00 | 71 | 1017.1 |
| 20260902052017 | 61 | 252 | 0.0 | 2.0 | 0.00 | 0.17 | 0.00 | 71 | 1017.1 |
| 20260902051026 | 61 | 239 | 1.0 | 2.0 | 0.00 | 0.17 | 0.00 | 72 | 1017.1 |
| 20260902050026 | 61 | 203 | 0.0 | 1.0 | 0.00 | 0.17 | 0.00 | 72 | 1016.1 |
| 20260902045022 | 61 | 248 | 0.0 | 1.0 | 0.00 | 0.17 | 0.00 | 72 | 1016.9 |
| 20260902044024 | 61 | 0.0 | 0.0 | 0.00 | 0.17 | 0.00 | 73 | 1017.1 | |
| 20260902043022 | 60 | 0.0 | 0.0 | 0.00 | 0.17 | 0.00 | 73 | 1016.1 | |
| 20260902042023 | 60 | 225 | 0.0 | 1.0 | 0.00 | 0.17 | 0.00 | 73 | 1016.1 |
| 20260902041023 | 60 | 0.0 | 0.0 | 0.00 | 0.17 | 0.00 | 73 | 1016.1 | |
| 20260902040016 | 60 | 0.0 | 0.0 | 0.00 | 0.17 | 0.00 | 73 | 1016.1 | |
| 20260902035217 | 60 | 203 | 0.0 | 1.0 | 0.00 | 0.17 | 0.00 | 73 | 1016.1 |
| 20260902034025 | 61 | 0.0 | 0.0 | 0.00 | 0.17 | 0.00 | 73 | 1016.1 | |
| 20260902033026 | 61 | 225 | 0.0 | 1.0 | 0.00 | 0.17 | 0.00 | 73 | 1016.1 |
| 20260902032024 | 61 | 0.0 | 0.0 | 0.00 | 0.17 | 0.00 | 73 | 1016.1 | |
| 20260902031204 | 61 | 0.0 | 0.0 | 0.00 | 0.17 | 0.00 | 73 | 1016.1 | |
| 20260902030024 | 61 | 0.0 | 0.0 | 0.00 | 0.17 | 0.00 | 73 | 1016.1 | |
| 20260902025018 | 61 | 248 | 0.0 | 1.0 | 0.00 | 0.17 | 0.00 | 73 | 1016.1 |
| 20260902024017 | 61 | 0.0 | 0.0 | 0.00 | 0.17 | 0.00 | 73 | 1016.1 | |
| 20260902023015 | 61 | 225 | 0.0 | 1.0 | 0.00 | 0.17 | 0.00 | 73 | 1016.1 |
| 20260902022022 | 61 | 158 | 0.0 | 1.0 | 0.00 | 0.17 | 0.00 | 74 | 1016.1 |
| 20260902021042 | 61 | 225 | 0.0 | 1.0 | 0.00 | 0.17 | 0.00 | 74 | 1016.1 |
| 20260902020023 | 61 | 0.0 | 0.0 | 0.00 | 0.17 | 0.00 | 74 | 1016.1 | |
| 20260902015020 | 61 | 0.0 | 0.0 | 0.00 | 0.17 | 0.00 | 73 | 1016.1 | |
| 20260902014025 | 61 | 203 | 0.0 | 1.0 | 0.00 | 0.17 | 0.00 | 73 | 1016.1 |
| 20260902013025 | 62 | 0.0 | 0.0 | 0.00 | 0.17 | 0.00 | 73 | 1016.1 | |
| 20260902012103 | 62 | 0.0 | 0.0 | 0.00 | 0.17 | 0.00 | 73 | 1016.1 | |
| 20260902011024 | 62 | 0.0 | 0.0 | 0.00 | 0.17 | 0.00 | 73 | 1016.1 | |
| 20260902010101 | 62 | 203 | 0.0 | 1.0 | 0.00 | 0.17 | 0.00 | 73 | 1016.1 |
| 20260902005023 | 62 | 0.0 | 0.0 | 0.00 | 0.17 | 0.00 | 73 | 1016.1 | |
| 20260902004023 | 62 | 0.0 | 0.0 | 0.00 | 0.17 | 0.00 | 73 | 1016.1 | |
| 20260902003045 | 62 | 0.0 | 0.0 | 0.00 | 0.17 | 0.00 | 73 | 1016.1 | |
| 20260902002016 | 62 | 0.0 | 0.0 | 0.00 | 0.17 | 0.00 | 73 | 1016.1 | |
| 20260902001019 | 62 | 0.0 | 0.0 | 0.00 | 0.17 | 0.00 | 73 | 1016.1 | |
| 20260902000032 | 62 | 0.0 | 0.0 | 0.00 | 0.17 | 0.00 | 73 | 1016.1 | |
| 20260901235023 | 0 | 0.0 | 0.0 | 0.00 | 0.17 | 0.00 | 1016.1 | ||
| 20260901234017 | 62 | 0.0 | 0.0 | 0.00 | 0.17 | 0.00 | 73 | 1016.1 | |
| 20260901233022 | 62 | 0.0 | 0.0 | 0.00 | 0.17 | 0.00 | 73 | 1016.1 | |
| 20260901232019 | 62 | 248 | 0.0 | 2.0 | 0.00 | 0.17 | 0.00 | 73 | 1016.1 |
| 20260901231045 | 62 | 0.0 | 0.0 | 0.00 | 0.17 | 0.00 | 73 | 1016.1 | |
| 20260901230028 | 62 | 225 | 0.0 | 1.0 | 0.00 | 0.17 | 0.00 | 73 | 1016.1 |
| 20260901225043 | 62 | 0.0 | 0.0 | 0.00 | 0.17 | 0.00 | 73 | 1016.1 | |
| 20260901224017 | 62 | 0.0 | 0.0 | 0.00 | 0.17 | 0.00 | 73 | 1016.1 | |
| 20260901223025 | 62 | 0.0 | 0.0 | 0.00 | 0.17 | 0.00 | 73 | 1016.1 | |
| 20260901222023 | 62 | 0.0 | 0.0 | 0.00 | 0.17 | 0.00 | 73 | 1016.1 | |
| 20260901221024 | 62 | 0.0 | 0.0 | 0.00 | 0.17 | 0.00 | 73 | 1016.1 | |
| 20260901220022 | 62 | 225 | 0.0 | 1.0 | 0.00 | 0.17 | 0.00 | 72 | 1016.1 |
| 20260901215023 | 62 | 0.0 | 0.0 | 0.00 | 0.17 | 0.17 | 73 | 1016.1 | |
| 20260901214046 | 62 | 0.0 | 0.0 | 0.00 | 0.17 | 0.17 | 72 | 1016.1 | |
| 20260901213145 | 62 | 0.0 | 0.0 | 0.00 | 0.17 | 0.17 | 72 | 1016.1 | |
| 20260901212024 | 62 | 0.0 | 0.0 | 0.00 | 0.17 | 0.17 | 72 | 1016.1 | |
| 20260901211015 | 62 | 0.0 | 0.0 | 0.00 | 0.17 | 0.17 | 72 | 1016.1 | |
| 20260901210024 | 62 | 203 | 0.0 | 1.0 | 0.00 | 0.17 | 0.17 | 72 | 1016.1 |
| 20260901205018 | 63 | 225 | 0.0 | 1.0 | 0.00 | 0.17 | 0.17 | 73 | 1016.1 |